Regional Weather Roundup
Issued by NWS

Home | Current Version | Previous Version | Text Only | Print | Product List | Glossary Off
Versions: 1 2 3 4 5 6 7 8 9 10 11 12 13 14 15 16 17 18 19 20 21 22 23 24 25 26 27 28 29 30 31 32 33 34 35 36 37 38 39 40 41 42 43 44 45 46 47 48 49 50

000
ASUS45 KABQ 260810
RWRNM
NEW MEXICO REGIONAL WEATHER ROUNDUP
NATIONAL WEATHER SERVICE ALBUQUERQUE NM
200 AM MDT MON JUN 26 2017

NOTE: "FAIR" MEANS FEW OR NO CLOUDS BELOW 12,000 FEET AGL WITH NO
       SIGNIFICANT WEATHER OR OBSTRUCTIONS TO VISION.

      THIS PRODUCT IS RELEASED AS TWO VERSIONS.  ONE VERSION NEAR
      THE TOP OF THE HOUR CONTAINING PRELIMINARY DATA FROM ALBUQUERQUE
      AND OTHER STATIONS.  A FINAL VERSION WITH ADDITIONAL DATA IS
      ISSUED ABOUT 10 MINUTES AFTER THE HOUR.

NMZ501-503-504-510>518-260900-
NORTHWEST PLATEAU/NORTHCENTRAL MOUNTAINS

CITY           SKY/WX    TMP DP  RH WIND       PRES   REMARKS
FARMINGTON     FAIR      67  41  38 NE7       30.17R
LOS ALAMOS     FAIR      57  49  75 S9        30.41F
SANTA FE       FAIR      59  52  77 S12       30.36S
TAOS           FAIR      57  43  58 CALM      30.41S
ANGEL FIRE     FAIR      46  44  95 CALM      30.50R

$$
NMZ402-403-502-505>509-260900-
WESTCENTRAL MOUNTAINS/SOUTHWEST MOUNTAINS

CITY           SKY/WX    TMP DP  RH WIND       PRES   REMARKS
GALLUP         FAIR      63  45  51 SE5       30.30S
GRANTS         FAIR      58  50  73 SE8       30.32S
SILVER CITY    FAIR      67  56  70 SW7       30.34S

$$
NMZ407-409-411-412-260900-
SOUTHERN DESERTS

CITY           SKY/WX    TMP DP  RH WIND       PRES   REMARKS
DEMING         MOCLDY    74  55  51 SE15G21   30.21F
LAS CRUCES     FAIR      74  55  52 W12       30.23R
HOLLOMAN AFB   FAIR      67  62  85 N7        30.22S
ALAMOGORDO     FAIR      68  59  73 N8        30.21F
T OR C         FAIR      69  58  67 S5        30.24F

$$
NMZ519>523-260900-
CENTRAL VALLEYS/CENTRAL HIGHLANDS

CITY           SKY/WX    TMP DP  RH WIND       PRES   REMARKS
ALBUQUERQUE    FAIR      67  53  61 E10       30.28F
DOUBLE EAGLE   FAIR      59  48  65 CALM      30.31F
MORIARTY ARPT  FAIR      51  50  97 NW3       30.39R
CLINES CORNERS NOT AVBL
BELEN          FAIR      63  53  69 S6        30.26R
SOCORRO        FAIR      62  54  77 SW6       30.24S

$$
NMZ524>526-539-540-260900-
SOUTHCENTRAL MOUNTAINS

CITY           SKY/WX    TMP DP  RH WIND       PRES   REMARKS
RUIDOSO        FAIR      54  52  94 E6        30.42R

$$
NMZ527>531-260900-
NORTHEAST HIGHLANDS/NORTHEAST PLAINS

CITY           SKY/WX    TMP DP  RH WIND       PRES   REMARKS
LAS VEGAS      FAIR      52  50  93 W5        30.41F
RATON          FAIR      55  53  93 NE3       30.36R
CLAYTON        FAIR      60  58  92 W8        30.31F

$$
NMZ532>537-260900-
EASTCENTRAL PLAINS

CITY           SKY/WX    TMP DP  RH WIND       PRES   REMARKS
SANTA ROSA     FAIR      59  56  92 CALM      30.30S
TUCUMCARI      FAIR      64  60  87 SW13      30.26S
CANNON AFB     CLOUDY    61  61 100 SE20      30.31F
CLOVIS AIRPORT CLOUDY    59  58  96 SE16      30.32F

$$
NMZ028-029-538-260900-
SOUTHEAST PLAINS

CITY           SKY/WX    TMP DP  RH WIND       PRES   REMARKS
ROSWELL        FAIR      66  62  87 N7        30.26R
ARTESIA        FAIR      66  66 100 NW9       30.24R
CARLSBAD       TSTM      67  67 100 E18G24    30.18F
HOBBS          TSTM      63  63 100 N17G25    30.30R


$$




USA.gov is the U.S. government's official web portal to all federal, state and local government web resources and services.